FDX313 RPVR-RPVB

Flight info

Callsign FDX313
Flight time 0h 34m
Altitude 12000
Route NASAG3C NASAG NASAG3P
Aircraft B738/M-SDE2E3FGHIRWXY/LB1

Departure

Time 2026-05-05 08:31
Airport Roxas Airport (RPVR)

Arrival

Time 2026-05-05 09:05
Airport Bacolod-Silay International Airport (RPVB)
Time Latitude Longitude Altitude Speed Heading
2026-05-05 08:07 11.60128 122.74890 6 ft 0 kts 264°
2026-05-05 08:26 11.60131 122.74886 6 ft 3 kts 297°
2026-05-05 08:26 11.60152 122.74892 10 ft 7 kts 45°
2026-05-05 08:26 11.60209 122.74922 6 ft 9 kts 19°
2026-05-05 08:26 11.60191 122.74987 6 ft 15 kts 148°
2026-05-05 08:27 11.60100 122.75051 6 ft 16 kts 143°
2026-05-05 08:27 11.60010 122.75115 8 ft 17 kts 145°
2026-05-05 08:27 11.59891 122.75201 8 ft 25 kts 144°
2026-05-05 08:27 11.59728 122.75317 9 ft 32 kts 145°
2026-05-05 08:28 11.59526 122.75460 7 ft 39 kts 145°
2026-05-05 08:28 11.59291 122.75630 6 ft 44 kts 145°
2026-05-05 08:28 11.59126 122.75759 7 ft 23 kts 127°
2026-05-05 08:28 11.59106 122.75756 7 ft 3 kts 285°
2026-05-05 08:29 11.59135 122.75740 7 ft 7 kts 327°
2026-05-05 08:29 11.59137 122.75739 7 ft 0 kts 326°
2026-05-05 08:30 11.59298 122.75624 6 ft 71 kts 325°
2026-05-05 08:30 11.59924 122.75176 8 ft 146 kts 325°
2026-05-05 08:30 11.60856 122.74512 531 ft 166 kts 328°
2026-05-05 08:31 11.61666 122.73678 1389 ft 178 kts 292°
2026-05-05 08:31 11.61622 122.72412 2067 ft 194 kts 242°
2026-05-05 08:31 11.60583 122.71432 2402 ft 221 kts 198°
2026-05-05 08:31 11.59030 122.71418 2678 ft 233 kts 155°
2026-05-05 08:32 11.57784 122.72456 3273 ft 235 kts 128°
2026-05-05 08:32 11.56622 122.73741 3643 ft 257 kts 134°
2026-05-05 08:32 11.55226 122.74933 4421 ft 264 kts 141°
2026-05-05 08:32 11.53693 122.75965 5437 ft 265 kts 147°
2026-05-05 08:33 11.52065 122.76870 6367 ft 269 kts 151°
2026-05-05 08:33 11.50357 122.77685 7193 ft 273 kts 154°
2026-05-05 08:33 11.48596 122.78437 8054 ft 276 kts 156°
2026-05-05 08:33 11.46792 122.79151 8883 ft 280 kts 157°
2026-05-05 08:34 11.44951 122.79846 9752 ft 284 kts 158°
2026-05-05 08:34 11.43067 122.80538 10380 ft 294 kts 159°
2026-05-05 08:34 11.41104 122.81245 10971 ft 303 kts 159°
2026-05-05 08:34 11.39096 122.81960 11559 ft 308 kts 159°
2026-05-05 08:35 11.37114 122.82664 11831 ft 301 kts 159°
2026-05-05 08:35 11.35054 122.83394 11850 ft 326 kts 159°
2026-05-05 08:35 11.32755 122.83896 11848 ft 351 kts 174°
2026-05-05 08:35 11.30265 122.83826 11837 ft 361 kts 187°
2026-05-05 08:36 11.27886 122.83210 11830 ft 342 kts 195°
2026-05-05 08:36 11.25675 122.82500 11825 ft 325 kts 195°
2026-05-05 08:36 11.23570 122.81802 11819 ft 311 kts 195°
2026-05-05 08:36 11.22195 122.81349 11821 ft 304 kts 195°
2026-05-05 08:37 11.20233 122.80710 11825 ft 298 kts 196°
2026-05-05 08:37 11.18248 122.80071 11842 ft 301 kts 194°
2026-05-05 08:37 11.16234 122.79430 11661 ft 306 kts 195°
2026-05-05 08:37 11.14204 122.78785 11445 ft 306 kts 194°
2026-05-05 08:38 11.12163 122.78139 11140 ft 306 kts 195°
2026-05-05 08:38 11.10136 122.77497 10841 ft 305 kts 194°
2026-05-05 08:38 11.08114 122.76858 10516 ft 304 kts 195°
2026-05-05 08:38 11.06101 122.76221 10204 ft 303 kts 194°
2026-05-05 08:39 11.04104 122.75591 10012 ft 297 kts 194°
2026-05-05 08:39 11.02163 122.74976 9923 ft 286 kts 195°
2026-05-05 08:39 11.00266 122.74381 9650 ft 285 kts 195°
2026-05-05 08:39 10.98377 122.73793 9364 ft 283 kts 191°
2026-05-05 08:40 10.96455 122.73732 9057 ft 275 kts 168°
2026-05-05 08:40 10.94593 122.74145 8765 ft 273 kts 163°
2026-05-05 08:40 10.92755 122.74623 8476 ft 272 kts 163°
2026-05-05 08:40 10.90931 122.75107 8181 ft 270 kts 163°
2026-05-05 08:41 10.89113 122.75588 7911 ft 269 kts 163°
2026-05-05 08:41 10.87300 122.76061 7627 ft 268 kts 164°
2026-05-05 08:41 10.85497 122.76527 7342 ft 267 kts 164°
2026-05-05 08:41 10.83699 122.76990 7035 ft 267 kts 165°
2026-05-05 08:42 10.83427 122.77059 6989 ft 267 kts 165°
2026-05-05 08:42 10.82722 122.77239 6883 ft 267 kts 164°
2026-05-05 08:42 10.80927 122.77695 6632 ft 265 kts 163°
2026-05-05 08:42 10.79143 122.78151 6350 ft 264 kts 164°
2026-05-05 08:43 10.77363 122.78603 6055 ft 263 kts 164°
2026-05-05 08:43 10.75590 122.79051 5769 ft 262 kts 163°
2026-05-05 08:43 10.73832 122.79498 5501 ft 259 kts 163°
2026-05-05 08:43 10.72086 122.79942 5231 ft 258 kts 164°
2026-05-05 08:44 10.70348 122.80383 4958 ft 257 kts 164°
2026-05-05 08:44 10.68617 122.80822 4690 ft 256 kts 165°
2026-05-05 08:44 10.66908 122.81305 4395 ft 255 kts 155°
2026-05-05 08:44 10.65542 122.82403 4143 ft 250 kts 127°
2026-05-05 08:45 10.65058 122.83113 4064 ft 247 kts 121°
2026-05-05 08:45 10.64655 122.83800 3995 ft 245 kts 119°
2026-05-05 08:45 10.64086 122.84827 3918 ft 240 kts 119°
2026-05-05 08:45 10.63662 122.85598 3856 ft 236 kts 118°
2026-05-05 08:46 10.62868 122.87031 3752 ft 229 kts 119°
2026-05-05 08:46 10.62094 122.88414 3657 ft 221 kts 119°
2026-05-05 08:46 10.61361 122.89735 3605 ft 207 kts 115°
2026-05-05 08:46 10.61139 122.91134 3377 ft 200 kts 78°
2026-05-05 08:47 10.61715 122.92379 3216 ft 194 kts 49°
2026-05-05 08:47 10.62757 122.93211 3014 ft 188 kts 32°
2026-05-05 08:47 10.63850 122.93868 2817 ft 182 kts 30°
2026-05-05 08:47 10.64932 122.94498 2622 ft 172 kts 30°
2026-05-05 08:48 10.65945 122.95087 2465 ft 164 kts 30°
2026-05-05 08:48 10.66905 122.95645 2310 ft 157 kts 29°
2026-05-05 08:48 10.67856 122.96196 2151 ft 153 kts 29°
2026-05-05 08:48 10.68781 122.96734 1914 ft 150 kts 28°
2026-05-05 08:49 10.69648 122.97239 1714 ft 140 kts 26°
2026-05-05 08:49 10.70478 122.97722 1516 ft 133 kts 27°
2026-05-05 08:49 10.71281 122.98189 1377 ft 137 kts 27°
2026-05-05 08:49 10.72112 122.98672 1159 ft 136 kts 28°
2026-05-05 08:50 10.72933 122.99150 983 ft 139 kts 28°
2026-05-05 08:50 10.73785 122.99646 778 ft 143 kts 27°
2026-05-05 08:50 10.74641 123.00145 607 ft 143 kts 29°
2026-05-05 08:50 10.75486 123.00638 409 ft 142 kts 29°
2026-05-05 08:51 10.76344 123.01135 269 ft 140 kts 29°
2026-05-05 08:51 10.77162 123.01625 137 ft 132 kts 30°
2026-05-05 08:51 10.77897 123.02054 137 ft 108 kts 30°
2026-05-05 08:51 10.78602 123.02491 664 ft 118 kts 32°
2026-05-05 08:52 10.79270 123.02936 1464 ft 110 kts 37°
2026-05-05 08:52 10.79914 123.03335 1936 ft 117 kts 36°
2026-05-05 08:52 10.80814 123.03854 1615 ft 175 kts 24°
2026-05-05 08:52 10.82047 123.03886 2295 ft 190 kts 348°
2026-05-05 08:53 10.83167 123.03094 2585 ft 203 kts 316°
2026-05-05 08:53 10.84210 123.02100 2903 ft 210 kts 324°
2026-05-05 08:53 10.85379 123.01178 2936 ft 214 kts 329°
2026-05-05 08:53 10.86617 123.00359 2942 ft 211 kts 334°
2026-05-05 08:54 10.87895 122.99636 2941 ft 209 kts 336°
2026-05-05 08:54 10.89188 122.98962 2950 ft 211 kts 332°
2026-05-05 08:54 10.90105 122.97801 2943 ft 216 kts 286°
2026-05-05 08:54 10.89992 122.96300 2951 ft 219 kts 243°
2026-05-05 08:55 10.89030 122.95077 2983 ft 222 kts 218°
2026-05-05 08:55 10.87738 122.94217 2957 ft 228 kts 205°
2026-05-05 08:55 10.86329 122.93417 2933 ft 233 kts 204°
2026-05-05 08:55 10.84930 122.92620 2950 ft 229 kts 207°
2026-05-05 08:56 10.83543 122.91819 2931 ft 229 kts 205°
2026-05-05 08:56 10.82165 122.91012 2940 ft 229 kts 207°
2026-05-05 08:56 10.80773 122.90199 2936 ft 231 kts 207°
2026-05-05 08:56 10.79365 122.89372 2946 ft 243 kts 207°
2026-05-05 08:57 10.77842 122.88473 2953 ft 260 kts 209°
2026-05-05 08:57 10.76277 122.87547 2949 ft 255 kts 211°
2026-05-05 08:57 10.74770 122.86652 2936 ft 248 kts 211°
2026-05-05 08:57 10.73278 122.85765 2942 ft 250 kts 211°
2026-05-05 08:58 10.71774 122.84871 2943 ft 251 kts 211°
2026-05-05 08:58 10.70266 122.83976 2950 ft 251 kts 211°
2026-05-05 08:58 10.68751 122.83086 2937 ft 252 kts 207°
2026-05-05 08:58 10.67065 122.82691 2932 ft 252 kts 176°
2026-05-05 08:59 10.65434 122.83260 2941 ft 251 kts 144°
2026-05-05 08:59 10.64250 122.84540 2942 ft 250 kts 122°
2026-05-05 08:59 10.63371 122.86039 2939 ft 241 kts 118°
2026-05-05 08:59 10.62587 122.87463 2917 ft 221 kts 118°
2026-05-05 09:00 10.61859 122.88776 2927 ft 208 kts 119°
2026-05-05 09:00 10.61184 122.90052 2930 ft 203 kts 110°
2026-05-05 09:00 10.61100 122.91438 2947 ft 200 kts 73°
2026-05-05 09:00 10.61828 122.92618 2942 ft 199 kts 40°
2026-05-05 09:01 10.62961 122.93341 2812 ft 186 kts 30°
2026-05-05 09:01 10.64025 122.93964 2803 ft 175 kts 30°
2026-05-05 09:01 10.65076 122.94577 2597 ft 175 kts 30°
2026-05-05 09:01 10.66101 122.95175 2398 ft 160 kts 29°
2026-05-05 09:02 10.67014 122.95708 2218 ft 147 kts 29°
2026-05-05 09:02 10.67880 122.96212 2099 ft 141 kts 28°
2026-05-05 09:02 10.68737 122.96711 1877 ft 141 kts 29°
2026-05-05 09:02 10.69570 122.97197 1681 ft 137 kts 26°
2026-05-05 09:03 10.70385 122.97670 1481 ft 133 kts 28°
2026-05-05 09:03 10.71187 122.98137 1341 ft 134 kts 27°
2026-05-05 09:03 10.71995 122.98606 1129 ft 133 kts 30°
2026-05-05 09:03 10.72813 122.99082 964 ft 139 kts 27°
2026-05-05 09:04 10.73663 122.99577 769 ft 142 kts 28°
2026-05-05 09:04 10.74506 123.00067 593 ft 140 kts 28°
2026-05-05 09:04 10.75353 123.00559 417 ft 141 kts 28°
2026-05-05 09:04 10.76201 123.01056 260 ft 141 kts 30°
2026-05-05 09:05 10.77017 123.01542 142 ft 130 kts 30°
2026-05-05 09:05 10.77745 123.01964 99 ft 98 kts 30°
2026-05-05 09:05 10.78115 123.02178 96 ft 34 kts 35°